Home   Weather   Taloyoak   Past weeks

Flag for Canada Past Weather in Taloyoak, Nunavut, Canada — Yesterday and Last 2 Weeks

Now
12 °F

Light snow. Overcast.


Feels Like: -1 °F
Forecast: 10 / 13 °F
Wind: 10 mph from East

Location: Spence Bay Airport

Current Time: Dec 3, 2016 at 4:49:03 am

Latest Report: Dec 3, 2016 at 4:00 am


Visibility: 15 mi

Pressure: 29.97 "Hg

Humidity: 85%

Dew Point: 9 °F

Location of TaloyoakLocation

Past Weather in Taloyoak — Graph

°F

Taloyoak Temperature Yesterday

Maximum temperature yesterday: 16 °F (at 9:00 am)
Minimum temperature yesterday: 12 °F (at 10:00 pm)
Average temperature yesterday: 15 °F

High & Low Weather Summary for the Past Weeks

 TemperatureHumidityPressure
High25 °F (Nov 30, 8:00 am)93% (Nov 27, 11:00 am)30.26 "Hg (Nov 27, 11:00 am)
Low-17 °F (Nov 24, 11:00 am)69% (Nov 24, 9:00 am)29.69 "Hg (Nov 18, 3:00 am)
Average7 °F83%30.02 "Hg
* Reported Nov 18 3:00 am — Dec 3 3:00 am, Taloyoak, Weather by CustomWeather, © 2016

Note: Actual official high and low records may vary slightly from our data, if they occured in-between our weather recording intervals... More about our weather records

Advertising

Taloyoak Weather History for the Previous 24 Hours

Scroll right to see more
 ConditionsComfort  
Time TempWeatherWind HumidityBarometerVisibility
3:00 am
Sat, Dec 3
12 °FLight snow. Mostly cloudy.12 mph85%29.98 "Hg15 mi
2:00 am12 °FLight snow. Mostly cloudy.10 mph85%29.98 "Hg15 mi
1:00 am12 °FLight snow. Mostly cloudy.13 mph85%29.98 "Hg15 mi
12:00 am12 °FLight snow. Mostly cloudy.12 mph85%29.98 "Hg10 mi
11:00 pm
Fri, Dec 2
12 °FLight snow. Overcast.14 mph85%29.98 "Hg10 mi
10:00 pm12 °FLight snow. Overcast.12 mph85%29.98 "Hg10 mi
9:00 pm14 °FLight snow. Overcast.12 mph85%29.98 "Hg10 mi
8:00 pm14 °FLight snow. Passing clouds.14 mph85%29.98 "Hg11 mi
7:00 pm16 °FLight snow. Passing clouds.10 mph86%29.98 "Hg10 mi
6:00 pm16 °FLight snow. Passing clouds.7 mph86%29.99 "Hg10 mi
5:00 pm16 °FLight snow. Partly sunny.5 mph86%30.00 "Hg10 mi
4:00 pm16 °FLight snow. Partly sunny.6 mph86%30.01 "Hg13 mi
3:00 pm16 °FLight snow. Partly sunny.5 mph86%30.00 "Hg10 mi
2:00 pm16 °FLight snow. Partly sunny.2 mph86%29.99 "Hg10 mi
1:00 pm16 °FLight snow. Partly sunny.2 mph86%29.98 "Hg10 mi
12:00 pm16 °FLight snow. Fog.2 mph86%29.98 "Hg7 mi
11:00 am16 °FLight snow. Fog.2 mph86%29.97 "Hg7 mi
10:00 am16 °FLight snow. Fog.3 mph86%29.96 "Hg6 mi
9:00 am16 °FLight snow. Partly sunny.2 mph86%29.96 "Hg15 mi
Weather by CustomWeather, © 2016

See weather overviewHow to use our weather pages